Weather History for Savoonga, AK

Change the Weather History Date:

Friday, June 1, 2012

  Actual Average Record
Temperature  
Mean Temperature 32 °F -  
Max Temperature 37 °F 37 °F 55 °F (1997)
Min Temperature 28 °F 30 °F 28 °F (2003)
Degree Days  
Heating Degree Days 32    
Moisture  
Dew Point 28 °F    
Average Humidity 85    
Maximum Humidity 93    
Minimum Humidity 70    
Precipitation  
Precipitation 0.00 in - - ()
Sea Level Pressure  
Sea Level Pressure 29.89 in    
Wind  
Wind Speed 5 mph (West)    
Max Wind Speed 16 mph    
Max Gust Speed 20 mph    
Visibility 9 miles    
Events      
Averages and records for this station are not official NWS values.
T = Trace of Precipitation, MM = Missing Value Source: NWS Daily Summary

Daily Weather History Graph

Daily Weather History Graph

Search for Another Location

Airport:

Trip Planner

Search our weather history database for the weather conditions in past years. The results will help you decide how hot, cold, wet, or windy it might be!

Date:

Astronomy

Jun. 01, 2012 Rise Set
Actual Time 5:23 AM AKDT 1:18 AM AKDT
Civil Twilight 3:52 AM AKDT 2:47 AM AKDT
Nautical Twilight Sun does not rise Sun does not rise
Astronomical Twilight Sun does not rise Sun does not rise
Moon 9:43 PM AKDT 4:21 AM AKDT
Length of Visible Light 22h 55m
Length of Day
19h 55m
Waxing Gibbous, 90% of the Moon is Illuminated
Jun 1
Waxing Gibbous
Jun 4
Full
Jun 11
Last Quarter
Jun 19
New
Jun 26
First Quarter

Hourly Weather History & Observations

Time (AKDT) Temp. Windchill Dew Point Humidity Pressure Visibility Wind Dir Wind Speed Gust Speed Precip Events Conditions
12:16 AM 30.2 °F 25.4 °F 28.4 °F 93% 29.87 in 10.0 mi West 4.6 mph - N/A   Overcast
12:36 AM 30.2 °F - 26.6 °F 86% 29.87 in 10.0 mi Calm Calm - N/A   Overcast
12:56 AM 30.2 °F 26.7 °F 28.4 °F 93% 29.88 in 10.0 mi SW 3.5 mph - N/A   Overcast
1:16 AM 30.2 °F - 26.6 °F 86% 29.88 in 10.0 mi Calm Calm - N/A   Overcast
1:36 AM 30.2 °F - 28.4 °F 93% 29.87 in 10.0 mi Calm Calm - N/A   Overcast
1:56 AM 30.2 °F - 28.4 °F 93% 29.87 in 10.0 mi Calm Calm - N/A   Overcast
2:16 AM 30.2 °F 25.4 °F 28.4 °F 93% 29.87 in 10.0 mi West 4.6 mph - N/A   Overcast
2:36 AM 30.2 °F 24.3 °F 28.4 °F 93% 29.87 in 7.0 mi West 5.8 mph - N/A   Overcast
2:56 AM 30.2 °F 26.7 °F 26.6 °F 86% 29.87 in 0.5 mi West 3.5 mph - N/A   Overcast
3:16 AM 30.2 °F 24.3 °F 26.6 °F 86% 29.87 in 0.2 mi West 5.8 mph - N/A   Overcast
3:36 AM 30.2 °F 25.4 °F 28.4 °F 93% 29.87 in 1.0 mi WSW 4.6 mph - N/A   Overcast
3:56 AM 30.2 °F 25.4 °F 28.4 °F 93% 29.87 in 5.0 mi WNW 4.6 mph - N/A   Overcast
4:16 AM 30.2 °F 22.6 °F 28.4 °F 93% 29.87 in 7.0 mi West 8.1 mph - N/A   Overcast
4:36 AM 30.2 °F 25.4 °F 28.4 °F 93% 29.87 in 4.0 mi West 4.6 mph - N/A   Overcast
4:56 AM 30.2 °F 24.3 °F 26.6 °F 86% 29.87 in 9.0 mi West 5.8 mph - N/A   Overcast
5:16 AM 30.2 °F 25.4 °F 28.4 °F 93% 29.87 in 10.0 mi NW 4.6 mph - N/A   Overcast
5:36 AM 28.4 °F 23.3 °F 26.6 °F 93% 29.87 in 10.0 mi West 4.6 mph - N/A   Scattered Clouds
5:56 AM 30.2 °F 26.7 °F 26.6 °F 86% 29.87 in 10.0 mi SSW 3.5 mph - N/A   Mostly Cloudy
6:16 AM 30.2 °F 26.7 °F 26.6 °F 86% 29.87 in 6.0 mi SSW 3.5 mph - N/A   Overcast
6:36 AM 28.4 °F 19.7 °F 26.6 °F 93% 29.87 in 0.8 mi West 9.2 mph - N/A   Overcast
6:56 AM 28.4 °F 19.7 °F 26.6 °F 93% 29.87 in 1.0 mi West 9.2 mph - N/A   Overcast
7:16 AM 28.4 °F 20.4 °F 26.6 °F 93% 29.86 in 10.0 mi West 8.1 mph - N/A   Overcast
7:36 AM 28.4 °F 21.2 °F 26.6 °F 93% 29.87 in 10.0 mi West 6.9 mph - N/A   Mostly Cloudy
7:56 AM 28.4 °F 21.2 °F 26.6 °F 93% 29.87 in 10.0 mi West 6.9 mph - N/A   Mostly Cloudy
8:16 AM 28.4 °F 21.2 °F 26.6 °F 93% 29.87 in 6.0 mi WSW 6.9 mph - N/A   Overcast
8:36 AM 28.4 °F 21.2 °F 26.6 °F 93% 29.87 in 10.0 mi West 6.9 mph - N/A   Scattered Clouds
8:56 AM 28.4 °F 21.2 °F 26.6 °F 93% 29.87 in 10.0 mi West 6.9 mph - N/A   Clear
9:16 AM 28.4 °F 21.2 °F 26.6 °F 93% 29.88 in 10.0 mi West 6.9 mph - N/A   Clear
9:36 AM 28.4 °F 20.4 °F 26.6 °F 93% 29.88 in 10.0 mi West 8.1 mph - N/A   Clear
9:56 AM 28.4 °F 22.2 °F 26.6 °F 93% 29.88 in 10.0 mi West 5.8 mph - N/A   Clear
10:16 AM 30.2 °F 24.3 °F 28.4 °F 93% 29.88 in 10.0 mi West 5.8 mph - N/A   Clear
10:36 AM 32.0 °F 27.5 °F 26.6 °F 80% 29.88 in 10.0 mi West 4.6 mph - N/A   Clear
10:56 AM 30.2 °F 25.4 °F 26.6 °F 86% 29.88 in 10.0 mi WNW 4.6 mph - N/A   Clear
11:16 AM 32.0 °F 28.7 °F 26.6 °F 80% 29.88 in 10.0 mi NNW 3.5 mph - N/A   Clear
11:36 AM 32.0 °F 27.5 °F 26.6 °F 80% 29.89 in 10.0 mi NW 4.6 mph - N/A   Clear
11:56 AM 32.0 °F 27.5 °F 26.6 °F 80% 29.89 in 10.0 mi NW 4.6 mph - N/A   Clear
12:16 PM 33.8 °F 30.8 °F 28.4 °F 81% 29.89 in 10.0 mi ENE 3.5 mph - N/A   Clear
12:36 PM 33.8 °F 29.6 °F 26.6 °F 75% 29.90 in 10.0 mi ESE 4.6 mph - N/A   Clear
12:56 PM 33.8 °F - 26.6 °F 75% 29.90 in 10.0 mi Calm Calm - N/A   Clear
1:16 PM 33.8 °F - 26.6 °F 75% 29.90 in 10.0 mi Calm Calm - N/A   Clear
1:36 PM 33.8 °F - 24.8 °F 70% 29.91 in 10.0 mi Calm Calm - N/A   Clear
1:56 PM 33.8 °F 30.8 °F 24.8 °F 70% 29.91 in 10.0 mi NW 3.5 mph - N/A   Clear
2:16 PM 32.0 °F 27.5 °F 26.6 °F 80% 29.91 in 10.0 mi WNW 4.6 mph - N/A   Clear
2:36 PM 33.8 °F 30.8 °F 26.6 °F 75% 29.91 in 10.0 mi WNW 3.5 mph - N/A   Clear
2:56 PM 33.8 °F 29.6 °F 28.4 °F 81% 29.91 in 10.0 mi WNW 4.6 mph - N/A   Clear
3:16 PM 32.0 °F 27.5 °F 28.4 °F 87% 29.91 in 10.0 mi West 4.6 mph - N/A   Clear
3:36 PM 33.8 °F 30.8 °F 28.4 °F 81% 29.91 in 10.0 mi NW 3.5 mph - N/A   Clear
3:56 PM 33.8 °F 29.6 °F 28.4 °F 81% 29.91 in 10.0 mi NNW 4.6 mph - N/A   Clear
4:16 PM 33.8 °F 25.8 °F 30.2 °F 87% 29.90 in 10.0 mi SW 10.4 mph - N/A   Clear
4:36 PM 37.4 °F 30.3 °F 30.2 °F 75% 29.90 in 10.0 mi SSW 10.4 mph - N/A   Scattered Clouds
4:56 PM 37.4 °F 29.3 °F 28.4 °F 70% 29.90 in 10.0 mi SW 12.7 mph - N/A   Mostly Cloudy
5:16 PM 37.4 °F 29.3 °F 30.2 °F 75% 29.90 in 10.0 mi SW 12.7 mph - N/A   Mostly Cloudy
5:36 PM 37.4 °F 28.9 °F 30.2 °F 75% 29.90 in 10.0 mi WSW 13.8 mph - N/A   Overcast
5:56 PM 37.4 °F 30.3 °F 30.2 °F 75% 29.90 in 10.0 mi West 10.4 mph - N/A   Overcast
6:16 PM 35.6 °F 28.6 °F 30.2 °F 81% 29.90 in 10.0 mi West 9.2 mph - N/A   Scattered Clouds
6:36 PM 35.6 °F 29.2 °F 30.2 °F 81% 29.90 in 10.0 mi West 8.1 mph - N/A   Clear
6:56 PM 33.8 °F 29.6 °F 30.2 °F 87% 29.91 in 10.0 mi West 4.6 mph - N/A   Clear
7:16 PM 33.8 °F 29.6 °F 30.2 °F 87% 29.91 in 10.0 mi NNW 4.6 mph - N/A   Clear
7:36 PM 33.8 °F 29.6 °F 30.2 °F 87% 29.91 in 10.0 mi NW 4.6 mph - N/A   Clear
7:56 PM 35.6 °F 31.7 °F 30.2 °F 81% 29.91 in 10.0 mi WNW 4.6 mph - N/A   Clear
8:16 PM 33.8 °F 29.6 °F 30.2 °F 87% 29.91 in 10.0 mi West 4.6 mph - N/A   Partly Cloudy
8:36 PM 35.6 °F 28.0 °F 28.4 °F 75% 29.91 in 10.0 mi SW 10.4 mph - N/A   Partly Cloudy
8:56 PM 37.4 °F 30.3 °F 30.2 °F 75% 29.92 in 10.0 mi SW 10.4 mph - N/A   Clear
9:16 PM 37.4 °F 29.8 °F 30.2 °F 75% 29.92 in 10.0 mi SSW 11.5 mph - N/A   Clear
9:36 PM 37.4 °F 30.3 °F 30.2 °F 75% 29.92 in 10.0 mi SW 10.4 mph - N/A   Clear
9:56 PM 35.6 °F 27.5 °F 30.2 °F 81% 29.92 in 10.0 mi SW 11.5 mph - N/A   Clear
10:16 PM 35.6 °F 27.5 °F 28.4 °F 75% 29.92 in 10.0 mi SSW 11.5 mph - N/A   Clear
10:36 PM 33.8 °F 25.3 °F 28.4 °F 81% 29.92 in 10.0 mi SSW 11.5 mph - N/A   Clear
10:56 PM 33.8 °F 25.3 °F 28.4 °F 81% 29.92 in 10.0 mi SW 11.5 mph - N/A   Clear
11:16 PM 33.8 °F 25.8 °F 30.2 °F 87% 29.92 in 10.0 mi SSW 10.4 mph - N/A   Clear
11:36 PM 33.8 °F 23.9 °F 30.2 °F 87% 29.93 in 10.0 mi SSW 15.0 mph - N/A   Partly Cloudy
11:56 PM 33.8 °F 23.5 °F 28.4 °F 81% 29.93 in 10.0 mi SSW 16.1 mph 19.6 mph N/A   Mostly Cloudy